Vertical_Velocity
-2 1 0 -1 -0 -1 -2 -2 -4 -4 -3 1 2 -1 -1 2 2 -2 -5 -3 -3 -2 -0 4 4 4 0 2 2 4 0 0 0 -2 -5 2 1 3 2 0 9 6 -7
3 3 0 -0 -1 3 0 1 -3 -5 -3 -6 -2 2 3 2 5 4 1 -2 0 -3 -4 -4 -1 6 2 3 2 -5 -4 1 2 -7 -5 -3 -2 -4 -8 -3 4 4 14
-1 3 2 3 5 3 4 4 0 2 -0 2 -2 -2 -1 -2 1 3 6 4 -2 -4 -4 -7 -7 -7 3 3 2 4 0 -1 -1 0 -1 -7 -8 -4 -1 11 2 7 -4
-0 -0 3 2 1 1 2 2 3 -3 0 1 -4 -1 -1 0 1 3 -3 -1 0 -1 -2 0 -1 -3 -12 -7 5 1 3 2 -3 1 2 4 3 3 9 0 3 -2 5
1 3 2 2 1 -1 -1 -3 -2 -3 -6 -6 -5 -6 -5 -2 4 -1 -0 2 1 -1 -1 -2 -2 -1 4 2 -4 -1 6 5 3 -1 -2 1 1 2 -1 3 -2 8 5
5 2 -0 -1 -2 -3 -3 -7 -6 -3 1 1 -4 -4 -5 -5 -2 2 1 2 4 3 -1 -2 -2 -1 -2 -2 4 -5 -4 -3 5 10 1 -3 -2 -2 -1 1 -1 0 4
-9 -2 -4 -5 -5 -2 -5 -1 -2 -2 -5 -2 -2 -2 -10 -3 -3 -3 4 1 -1 -0 0 0 -1 -4 -4 1 -3 1 2 1 3 0 10 5 -2 -3 -2 1 1 -1 -0
2 1 -2 -1 -4 -6 -3 -3 -4 -6 -3 0 -3 -1 -4 -14 4 -5 -7 1 -3 -8 -8 -5 -9 -5 -4 -4 1 -2 -1 3 -5 1 -0 8 5 -3 -3 -1 3 2 -1
-3 -2 4 4 1 -3 -3 -5 -3 -2 -5 -5 -0 5 -7 -1 -10 -10 -4 -5 -2 -4 -5 -6 -3 -7 -7 -6 -3 -1 -0 0 -2 3 1 -1 2 0 -6 -3 -2 3 4
3 2 -5 -7 -8 0 -1 -4 -6 -4 -3 -2 -5 -3 3 13 4 -14 -6 -22 -3 -2 3 -1 -3 -3 -3 -5 -2 -0 1 0 -1 -2 1 9 0 2 -3 -5 -1 -1 1
1 -4 -4 -0 1 -5 2 -0 1 0 -1 1 2 2 -6 -6 -5 5 -10 -3 -7 -20 -3 1 -1 -1 0 0 -4 -2 -0 -1 -2 -2 -3 1 7 7 2 -2 -4 -1 -1
-6 -3 1 -3 -7 -6 -4 -3 -0 -0 -2 -3 -0 1 -0 0 -4 5 4 -6 5 -7 -6 1 2 5 1 -0 -0 -5 -4 -1 -1 -2 -1 -1 5 4 -4 3 -5 -2 1
-5 -1 4 1 2 1 -2 -5 -2 0 1 -1 -1 -4 4 0 1 -2 6 -6 9 -9 -5 -0 2 4 0 0 -0 -1 -2 -7 -3 -2 0 -0 2 2 4 -2 6 -8 2
0 -2 -7 -3 -4 -1 2 2 -4 -2 -2 -3 -6 0 -3 -1 0 2 1 9 -6 -1 -5 -3 -10 0 3 -0 1 0 -4 -3 -2 -1 -2 8 -0 -1 2 -0 4 -10 5
0 6 7 4 -6 -3 -12 -4 1 -4 -2 1 0 -2 -1 -3 6 6 6 5 5 -3 -1 -8 -1 -5 -7 -1 3 0 -2 -5 -5 -3 -4 -3 2 6 8 0 -2 -1 -1
4 1 1 -12 2 4 2 -1 2 1 3 -0 -0 3 -3 -0 1 -0 -1 1 9 6 -1 -4 -8 1 -7 -8 -2 1 1 -1 -2 -5 -6 -8 4 1 0 2 4 2 5
4 0 -4 -0 4 5 5 2 -3 5 -7 1 -1 1 -4 -1 -2 -4 -3 -1 0 8 2 -7 -4 2 -0 -2 -8 -3 4 2 -0 1 -2 -9 -9 7 3 11 2 -2 5
4 2 2 -6 0 4 10 2 -1 1 -2 -10 3 -0 -2 -1 -1 1 0 -1 -2 4 6 -0 1 -1 2 1 -4 -5 -5 1 -2 1 5 -1 -14 -2 7 -0 6 -6 7
2 10 6 -7 4 0 6 2 -1 -0 -7 2 2 -1 -1 -1 -0 -2 -1 -1 -0 0 2 5 -4 3 4 -1 -2 -3 -4 -2 -4 -3 -0 2 -4 -13 -11 -5 -7 11 4
5 5 -0 8 2 8 -9 4 -1 -0 2 1 -0 0 -0 1 -1 -1 -2 -1 2 2 2 -1 -1 -3 3 1 1 -2 -5 -2 -7 -0 2 -0 -1 -1 -1 -13 -6 4 -3
4 1 -1 3 3 -18 6 1 1 2 1 -2 -2 1 2 1 1 4 3 1 1 1 -0 13 2 -0 -4 0 -0 4 -3 -2 -4 -4 -1 5 6 6 2 -1 -6 -12 6
-4 2 1 2 -8 4 2 0 0 -2 -3 -0 -1 -1 -0 -2 -1 -0 0 0 5 2 0 -0 -2 -2 -1 6 3 0 1 -1 -7 -2 -2 -3 -0 3 4 11 4 1 -4
3 -1 -2 0 2 1 1 -0 -1 -1 -1 -0 -0 -0 -1 -0 1 -0 -1 1 1 1 9 8 3 1 -3 -5 4 0 -1 0 -5 2 -3 -6 -2 -6 0 1 3 6 4
0 1 3 -1 3 1 -0 -1 -2 -1 -1 1 1 1 -0 -3 -2 -2 -0 4 -2 -1 1 -2 4 6 -1 -3 -1 0 3 0 -3 -1 6 -9 3 -5 1 -2 -5 -1 -1
1 -1 -1 1 -0 -1 -2 -1 -2 -2 -0 -1 -0 1 -1 -1 -2 4 8 3 2 -3 4 3 2 -3 0 10 1 5 -2 1 -6 -4 2 -1 2 -3 -2 -2 0 -5 -7
-1 1 1 1 -2 -2 -1 -1 -1 -2 -2 -2 -1 -2 1 1 3 -1 3 -1 1 1 -1 -0 2 2 -0 -4 -3 -0 3 -1 -0 -8 3 -3 5 9 -1 -4 -2 2 1
Height
1564 1563 1564 1563 1562 1561 1560 1559 1558 1556 1554 1552 1551 1549 1548 1546 1544 1543 1541 1540 1539 1538 1537 1536 1536 1535 1533 1532 1531 1530 1529 1529 1527 1525 1525 1525 1525 1526 1528 1529 1532 1533 1536
1563 1562 1562 1561 1560 1558 1558 1556 1554 1553 1550 1548 1546 1545 1543 1541 1540 1539 1537 1535 1533 1532 1531 1530 1529 1530 1529 1528 1526 1525 1524 1523 1522 1522 1523 1521 1522 1521 1524 1525 1527 1529 1531
1562 1561 1561 1559 1557 1555 1554 1552 1551 1548 1546 1543 1541 1539 1537 1536 1534 1533 1531 1529 1527 1525 1525 1524 1523 1522 1522 1523 1522 1521 1519 1519 1519 1520 1519 1519 1517 1521 1522 1519 1521 1523 1527
1560 1559 1558 1556 1555 1552 1550 1547 1544 1541 1540 1538 1535 1534 1532 1531 1529 1527 1525 1522 1520 1519 1518 1518 1516 1515 1514 1513 1515 1515 1515 1513 1513 1514 1514 1515 1515 1513 1511 1512 1514 1517 1520
1559 1557 1555 1554 1551 1548 1545 1542 1540 1537 1535 1533 1530 1529 1528 1525 1523 1520 1518 1516 1514 1513 1511 1511 1509 1508 1507 1506 1505 1506 1508 1509 1508 1506 1507 1507 1506 1506 1505 1506 1508 1511 1514
1557 1556 1553 1551 1548 1545 1542 1539 1536 1534 1531 1526 1523 1521 1520 1520 1518 1515 1512 1511 1509 1507 1506 1504 1502 1501 1499 1498 1497 1497 1497 1499 1501 1501 1499 1499 1500 1501 1501 1501 1502 1503 1507
1556 1554 1551 1547 1544 1541 1538 1535 1531 1528 1526 1522 1518 1515 1513 1514 1514 1512 1508 1506 1504 1502 1499 1498 1496 1494 1493 1491 1490 1488 1489 1489 1491 1493 1494 1493 1492 1494 1495 1496 1497 1498 1500
1554 1550 1547 1544 1539 1537 1534 1530 1527 1524 1521 1519 1515 1512 1508 1506 1506 1507 1505 1502 1499 1497 1496 1493 1490 1487 1486 1485 1483 1481 1480 1480 1481 1483 1485 1486 1485 1485 1488 1490 1491 1491 1493
1548 1546 1543 1539 1536 1532 1528 1526 1524 1521 1517 1516 1515 1513 1508 1504 1499 1500 1498 1496 1494 1491 1490 1487 1484 1481 1478 1477 1477 1475 1473 1473 1473 1474 1476 1478 1479 1479 1480 1483 1484 1485 1487
1544 1541 1537 1536 1534 1530 1526 1521 1519 1517 1515 1512 1510 1510 1508 1506 1499 1490 1490 1490 1487 1485 1483 1480 1477 1474 1472 1470 1469 1467 1466 1464 1465 1466 1468 1470 1472 1473 1473 1475 1478 1479 1481
1541 1538 1534 1532 1529 1526 1522 1517 1514 1512 1510 1509 1507 1504 1501 1499 1499 1495 1482 1481 1481 1479 1478 1474 1472 1470 1467 1464 1462 1461 1459 1458 1457 1459 1461 1462 1465 1466 1466 1468 1471 1473 1474
1537 1533 1530 1527 1524 1522 1519 1516 1513 1510 1507 1506 1504 1501 1498 1495 1491 1490 1484 1477 1475 1472 1471 1469 1468 1467 1465 1462 1459 1457 1454 1452 1451 1451 1454 1456 1456 1458 1460 1462 1463 1467 1470
1532 1529 1526 1523 1520 1516 1512 1511 1510 1508 1505 1501 1500 1499 1494 1492 1489 1486 1481 1474 1471 1467 1465 1464 1464 1463 1460 1458 1456 1454 1452 1450 1449 1448 1448 1449 1451 1452 1454 1455 1457 1461 1465
1527 1525 1523 1520 1517 1515 1513 1509 1506 1504 1502 1499 1496 1495 1491 1488 1485 1482 1477 1473 1468 1465 1462 1460 1460 1459 1457 1456 1453 1451 1449 1448 1446 1444 1443 1444 1445 1448 1448 1449 1452 1454 1460
1522 1518 1516 1514 1510 1509 1508 1506 1502 1499 1497 1495 1492 1490 1487 1486 1482 1478 1474 1471 1468 1464 1459 1457 1456 1456 1455 1453 1451 1449 1447 1446 1444 1442 1439 1438 1439 1440 1442 1443 1446 1450 1453
1518 1515 1512 1509 1507 1504 1502 1500 1498 1495 1493 1490 1487 1485 1482 1481 1477 1473 1469 1466 1464 1461 1455 1453 1451 1450 1449 1448 1447 1446 1444 1443 1441 1439 1436 1435 1434 1435 1437 1440 1440 1443 1448
1514 1510 1507 1506 1504 1501 1498 1495 1494 1490 1487 1486 1484 1479 1476 1474 1469 1465 1462 1459 1455 1454 1448 1444 1444 1443 1442 1442 1441 1440 1439 1438 1437 1436 1433 1432 1432 1431 1431 1434 1436 1439 1440
1509 1505 1501 1498 1498 1498 1495 1492 1489 1486 1483 1482 1478 1473 1470 1466 1461 1457 1452 1449 1446 1444 1441 1437 1436 1436 1435 1434 1433 1433 1432 1432 1431 1432 1431 1428 1428 1428 1429 1429 1430 1433 1437
1504 1500 1496 1494 1494 1493 1492 1488 1485 1482 1479 1476 1472 1467 1462 1458 1453 1449 1445 1441 1437 1435 1433 1430 1427 1427 1427 1427 1426 1426 1426 1425 1425 1425 1425 1425 1424 1426 1427 1427 1428 1430 1434
1498 1494 1492 1490 1489 1489 1487 1484 1481 1478 1474 1470 1465 1460 1455 1451 1446 1442 1437 1434 1431 1428 1426 1424 1421 1420 1419 1420 1419 1418 1418 1418 1418 1418 1420 1420 1420 1421 1423 1425 1427 1430 1429
1492 1489 1487 1487 1485 1484 1483 1480 1476 1472 1468 1462 1458 1453 1449 1444 1440 1436 1431 1427 1424 1421 1419 1417 1415 1414 1413 1413 1413 1413 1412 1412 1411 1412 1413 1415 1415 1416 1418 1419 1420 1424 1427
1487 1484 1484 1483 1482 1481 1478 1475 1471 1466 1461 1456 1450 1445 1440 1436 1432 1428 1424 1420 1419 1415 1413 1411 1409 1409 1408 1406 1407 1407 1407 1406 1406 1407 1406 1408 1410 1411 1413 1415 1417 1420 1422
1482 1482 1481 1480 1479 1476 1473 1469 1465 1460 1454 1449 1443 1437 1433 1429 1424 1420 1416 1414 1411 1409 1407 1405 1402 1402 1402 1402 1402 1401 1401 1401 1401 1402 1402 1401 1404 1406 1408 1410 1412 1414 1416
1481 1480 1478 1478 1475 1472 1469 1464 1458 1453 1448 1443 1437 1432 1427 1422 1419 1415 1412 1408 1405 1403 1401 1399 1397 1396 1395 1395 1395 1395 1395 1395 1394 1395 1397 1395 1397 1399 1402 1404 1406 1408 1410
1479 1477 1476 1474 1472 1468 1464 1458 1453 1448 1442 1437 1432 1428 1424 1419 1416 1413 1408 1403 1400 1397 1396 1394 1392 1390 1389 1388 1389 1389 1389 1390 1389 1388 1390 1391 1392 1395 1397 1397 1400 1402 1405
1476 1475 1473 1471 1467 1464 1459 1454 1449 1443 1437 1432 1429 1425 1421 1418 1414 1409 1404 1400 1396 1392 1390 1388 1386 1384 1383 1382 1383 1383 1384 1384 1385 1382 1383 1386 1386 1389 1389 1390 1393 1395 1398